Location: Capvern
(43.1036°N, 0.3160°E)
Time: 10:59:40
(UTC+00:00)

Cosmos 489 Rocket - Pass Details

Date: 07 June 2022
Orbit: 952 x 983 km, 74.0° (Epoch: 01 July)

Event Time Altitude Azimuth Distance (km) Brightness Sun altitude
Rises 02:49:23 0° 330° (NNW) 3,654 7.8 -13.2°
Reaches altitude 10° 02:52:11 10° 320° (NW) 2,708 7.0 -12.9°
Maximum altitude 02:57:32 31° 262° (W) 1,639 5.3 -12.2°
Enters shadow 03:01:59 14° 207° (SSW) 2,431 6.0 -11.7°
